STARLINK-1308, 45419

Orbit data source: Space-Track

STARLINK-1308, 45419 is a payload satellite owned by SpaceX/Seattle (US) in LEO that was launched on Wed, 18 Mar 2020 UTC via an FALCON 9 launch vehicle from the Air Force Eastern Test Range (AFETR). Payload-class satellites include a variety of spacecraft equipped with specific instruments for various scientific and technological missions. These include communications satellites like Starlink; space stations such as the ISS; scientific satellites like the Hubble; Earth observation satellites from companies like Planet Labs, Umbra, and HawkEye 360; GPS; miniature CubeSats for education and research; and military/defense satellites.

Loading next visibility...
Identifier
45419, 2020-019BM
Orbit
LEO
Country
Flag of USUS
Related business
Manufacturer
SpaceX/Seattle
Mission
Operational Commercial Communications
Bus & Motor
STARLINK, Unknown motor
Mass
260 kg wet, ~248 kg dry
Launch date (UTC)
2020-03-18 (6 years ago)
Launch vehicle
FALCON 9
Launch site
Air Force Eastern Test Range (AFETR)
Object type
Payload
Rocket body
Debris
Shape & HBR
Box + 1 Pan, 10.1 m
Radar Cross Section
13.562 m², Large (>1 m²)

Expand to show TLE details & history
Last TLE update: 1 day ago

TLE from 1 day ago
0 STARLINK-1308
1 45419U 20019BM  25312.83748149  .00008364  00000-0  57964-3 0  9997
2 45419  53.0538 349.1446 0001307  84.6138 275.5000 15.06404600311258
Epoch: 2025-11-08T20:05Z
TLE epoch observation values (Epoch: 2025-11-08T20:05:58.400Z)
Latitude
-0.00004°
Longitude
-0.61012°
Altitude
547.99 km
Speed
7.589 km/s
True Right ascension
23h 16m 34s
True Declination
0° 00' 00"
Sunlit
Object was in full shadow at epoch
Visualization orbit readout
Latitude
Unknown
Longitude
Unknown
Altitude
Unknown
Speed
Unknown
Apparent Right ascension
Unknown
Apparent Declination
Unknown
Sunlit
N/A
Visualization observer readout
Local Sidereal Time
18:12:36
Azimuth
Unknown
Elevation
Unknown
Doppler factor
Unknown
Orbital elements
Apogee altitude
548.373 km
Perigee altitude
546.563 km
Semi-major axis
6,925.605 km
Eccentricity
0.00013
Inclination
53.0538°
RAAN
349.1446°
Arg. of periapsis
84.6138°
True anomaly
275.48509°
Mean anomaly
275.5°
Eccentric anomaly
275.49255°
Mean motion
3.76579 °/min
Orbital period
95.6 mins
BSTAR
0.00057964
Loading maneuver chart data...
Computing Atmospheric mass density...

Documentation

Showing up to 5 results
|